User: anonymous   Login
Location: Willingham
(52.3167°N, 0.0667°E)
Time: 01:19:52
(UTC+00:00)
Language:

Cosmos 1455 - Orbit

View from above orbital plane
View from above orbital plane
View from above satellite
View from above satellite

Ground track
Ground track

The orbit data is extracted from the following two-line orbital elements,

1 14032U 83037A   25198.48276003  .00142811  00000-0  56337-3 0  9990
2 14032  82.4912  12.3212 0003471 301.9688  58.1245 15.86433133311466
Epoch (UTC): 17 July 2025 11:35:10
Eccentricity: 0.0003471
inclination: 82.4912°
perigee height: 310 km
apogee height: 314 km
right ascension of ascending node: 12.3212°
argument of perigee: 301.9688°
revolutions per day: 15.86433133
mean anomaly at epoch: 58.1245°
orbit number at epoch: 31146

The dashed part of the orbit path shows where the satellite is in the earth's shadow,  

DLR